Flag for Germany Weather past 2 weeks in Schweinfurt, Bavaria, Germany

Now
79 °F

Scattered clouds.


Feels Like: 80 °F
Forecast: 66 / 96 °F
Wind: 2 mph from Southeast

Location: Wuerzburg

Current Time: Jul 3, 2015 at 10:50:42 AM

Latest Report: Jul 3, 2015 at 10:00 AM


Visibility: 19 mi

Pressure: 30.22 "Hg

Humidity: 53%

Dew point: 60 °F

Location of SchweinfurtLocation

Historic Weather in Schweinfurt — Graph

°F

Schweinfurt temperature yesterday

Maximum temperature yesterday: 93 °F (at 7:00 PM)
Minimum temperature yesterday: 67 °F (at 6:00 AM)
Average temperature yesterday: 81 °F

Past Weeks' High & Low Weather Summary

 TemperatureHumidityPressure
High93 °F (Jul 2, 7:00 PM)98% (Jun 22, 4:00 AM)30.26 "Hg (Jun 22, 4:00 AM)
Low48 °F (Jun 23, 6:00 AM)29% (Jun 30, 6:00 PM)29.72 "Hg (Jun 23, 1:00 AM)
Average64 °F66%30.10 "Hg
* Reported Jun 18 9:00 AM — Jul 3 9:00 AM, Schweinfurt, Weather by CustomWeather, © 2015

Note: Actual official high and low records may vary slightly from our data, if they occured in-between our weather recording intervals... More about our weather records

Advertising

Schweinfurt weather history for previous 24 hours

 ConditionsComfort  
Time TempWeatherWind HumidityBarometerVisibility
9:00 AM
Fri, Jul 3
76 °FScattered clouds.1 mph59%30.22 "Hg16 mi
8:00 AM73 °FPartly sunny.No wind66%30.22 "Hg12 mi
7:00 AM71 °FScattered clouds.No wind72%30.22 "Hg12 mi
6:00 AM68 °FPassing clouds.1 mph70%30.21 "Hg47 mi
5:00 AM70 °FClear.No wind67%30.20 "Hg13 mi
4:00 AM70 °FPassing clouds.1 mph71%30.20 "Hg11 mi
3:00 AM70 °FClear.2 mph71%30.19 "Hg12 mi
2:00 AM71 °FClear.1 mph67%30.19 "Hg14 mi
1:00 AM74 °FClear.2 mph61%30.18 "Hg15 mi
12:00 AM76 °FClear.1 mph56%30.17 "Hg15 mi
11:00 PM
Thu, Jul 2
80 °FPassing clouds.2 mph45%30.16 "Hg18 mi
10:00 PM83 °FPassing clouds.2 mph41%30.14 "Hg19 mi
9:00 PM87 °FSunny.5 mph34%30.11 "Hg25 mi
8:00 PM90 °FSunny.3 mph33%30.10 "Hg28 mi
7:00 PM93 °FSunny.1 mph32%30.09 "Hg25 mi
6:00 PM92 °FPassing clouds.2 mph32%30.10 "Hg25 mi
5:00 PM92 °FPassing clouds.5 mph31%30.11 "Hg28 mi
4:00 PM91 °FPassing clouds.3 mph31%30.11 "Hg28 mi
3:00 PM92 °FPassing clouds.5 mph33%30.11 "Hg19 mi
2:00 PM91 °FSunny.5 mph34%30.12 "Hg19 mi
1:00 PM89 °FSunny.5 mph36%30.13 "Hg22 mi
12:00 PM87 °FSunny.6 mph39%30.14 "Hg22 mi
11:00 AM85 °FPassing clouds.5 mph45%30.15 "Hg19 mi
10:00 AM80 °FSunny.3 mph49%30.16 "Hg17 mi
Weather by CustomWeather, © 2015

See weather overviewHow to use our weather pages